Location: Poughquag
(41.6090°N, 73.6820°W)
Time: 19:33:08
(UTC-04:00)

MOZHAYETS 4 - Pass Details

Date: 14 August 2024
Orbit: 650 x 668 km, 98.3° (Epoch: 15 September)

Event Time Altitude Azimuth Distance (km) Brightness Sun altitude
Rises 03:55:57 0° 150° (SSE) 2,997 10.9 -21.0°
Reaches altitude 10° 03:58:13 10° 144° (SE) 2,090 10.2 -20.7°
Maximum altitude 04:02:35 47° 72° (ENE) 895 8.7 -20.1°
Drops below altitude 10° 04:06:59 10° 359° (N) 2,107 10.8 -19.4°
Sets 04:09:17 0° 353° (N) 3,024 11.6 -19.1°
